Terug naar catalogus

STARLINK-32137

ActiefCommunicatieVLEO
NORAD 60155·PAYLOAD·🇺🇸 United States

Gelanceerd Jun 27, 2024 vanaf Cape Canaveral Space Force Station

Loading…

Volgende Passages (komende 24 uur)

TLE

VersSource: CelesTrak SupGP

Epoch: Sep 14, 2026, 21:21 UTC

1 60155C 24120W   26257.89006944 -.00043198  00000+0 -12758-2 0  2576
2 60155  53.1580 157.8915 0001370  89.9502 101.1422 15.34424712    16

Volg STARLINK-32137 in realtime met AllMySat

Download on the App Store